Time,TemperatureF,DewpointF,PressureIn,WindDirection,WindDirectionDegrees,WindSpeedMPH,WindSpeedGustMPH,Humidity,HourlyPrecipIn,Conditions,Clouds,dailyrainin,SoftwareType,DateUTC
2013-10-04 00:00:00,72.9,66.0,29.78,South,181,7.0,13.0,79,0.00,-RA,-RA,0.00,WeatherDisplay:10.37,2013-10-04 05:00:00,
2013-10-04 00:05:00,72.8,65.9,29.78,South,181,7.0,13.0,79,0.00,-RA,-RA,0.00,WeatherDisplay:10.37,2013-10-04 05:05:00,
2013-10-04 00:10:00,72.8,65.9,29.78,South,182,8.0,14.0,79,0.00,-RA,-RA,0.00,WeatherDisplay:10.37,2013-10-04 05:10:00,
2013-10-04 00:15:00,72.8,65.9,29.78,South,181,6.0,13.0,79,0.00,-RA,-RA,0.00,WeatherDisplay:10.37,2013-10-04 05:15:00,
2013-10-04 00:20:00,72.7,65.8,29.78,South,180,7.0,12.0,79,0.00,-RA,-RA,0.00,WeatherDisplay:10.37,2013-10-04 05:20:00,
2013-10-04 00:25:00,72.5,65.9,29.78,South,179,7.0,13.0,80,0.00,-RA,-RA,0.00,WeatherDisplay:10.37,2013-10-04 05:25:00,
2013-10-04 00:35:00,72.3,65.7,29.78,South,188,6.0,10.0,80,0.00,-RA,-RA,0.00,WeatherDisplay:10.37,2013-10-04 05:35:00,
2013-10-04 00:40:00,72.2,65.7,29.78,South,179,6.0,10.0,80,0.00,-RA,-RA,0.00,WeatherDisplay:10.37,2013-10-04 05:40:00,
2013-10-04 00:50:00,72.2,65.7,29.79,South,177,6.0,15.0,80,0.00,-RA,-RA,0.00,WeatherDisplay:10.37,2013-10-04 05:50:00,
2013-10-04 00:55:00,72.2,66.0,29.78,South,188,6.0,13.0,81,0.00,-RA,-RA,0.00,WeatherDisplay:10.37,2013-10-04 05:55:00,
2013-10-04 01:00:00,72.0,65.8,29.78,South,183,5.0,10.0,81,0.00,-RA,-RA,0.00,WeatherDisplay:10.37,2013-10-04 06:00:00,
2013-10-04 01:10:00,71.9,65.7,29.79,South,176,6.0,12.0,81,0.00,-RA,-RA,0.00,WeatherDisplay:10.37,2013-10-04 06:10:00,
2013-10-04 01:15:00,71.8,65.6,29.79,South,175,6.0,12.0,81,0.00,-RA,-RA,0.00,WeatherDisplay:10.37,2013-10-04 06:15:00,
2013-10-04 01:20:00,71.7,65.9,29.78,South,176,6.0,10.0,82,0.00,-RA,-RA,0.00,WeatherDisplay:10.37,2013-10-04 06:20:00,
2013-10-04 01:25:00,71.6,65.8,29.78,South,184,6.0,14.0,82,0.00,-RA,-RA,0.00,WeatherDisplay:10.37,2013-10-04 06:25:00,
2013-10-04 01:30:00,71.6,65.8,29.79,South,181,7.0,14.0,82,0.00,-RA,-RA,0.00,WeatherDisplay:10.37,2013-10-04 06:30:00,
2013-10-04 01:40:00,71.5,65.7,29.79,SSE,167,7.0,12.0,82,0.00,-RA,-RA,0.00,WeatherDisplay:10.37,2013-10-04 06:40:00,
2013-10-04 01:45:00,71.5,65.7,29.79,South,172,6.0,13.0,82,0.00,-RA,-RA,0.00,WeatherDisplay:10.37,2013-10-04 06:45:00,
2013-10-04 01:50:00,71.5,65.7,29.79,South,180,6.0,13.0,82,0.00,-RA,-RA,0.00,WeatherDisplay:10.37,2013-10-04 06:50:00,
2013-10-04 02:00:00,71.3,65.8,29.79,South,182,6.0,10.0,83,0.00,-RA,-RA,0.00,WeatherDisplay:10.37,2013-10-04 07:00:00,
2013-10-04 02:10:00,71.2,65.8,29.79,South,179,6.0,13.0,83,0.00,-RA,-RA,0.00,WeatherDisplay:10.37,2013-10-04 07:10:00,
2013-10-04 02:15:00,71.2,65.7,29.79,South,178,6.0,12.0,83,0.00,-RA,-RA,0.00,WeatherDisplay:10.37,2013-10-04 07:15:00,
2013-10-04 02:25:00,71.1,65.7,29.79,South,185,6.0,13.0,83,0.00,-RA,-RA,0.00,WeatherDisplay:10.37,2013-10-04 07:25:00,
2013-10-04 02:30:00,71.1,65.6,29.79,South,182,5.0,12.0,83,0.00,-RA,-RA,0.00,WeatherDisplay:10.37,2013-10-04 07:30:00,
2013-10-04 02:40:00,71.1,66.1,29.79,South,190,6.0,12.0,84,0.00,-RA,-RA,0.00,WeatherDisplay:10.37,2013-10-04 07:40:00,
2013-10-04 02:45:00,71.2,66.2,29.79,South,189,7.0,17.0,84,0.00,-RA,-RA,0.00,WeatherDisplay:10.37,2013-10-04 07:45:00,
2013-10-04 02:50:00,71.3,66.2,29.78,South,182,7.0,14.0,84,0.00,-RA,-RA,0.00,WeatherDisplay:10.37,2013-10-04 07:50:00,
2013-10-04 03:00:00,71.1,66.0,29.78,South,187,7.0,13.0,84,0.00,-RA,-RA,0.00,WeatherDisplay:10.37,2013-10-04 08:00:00,
2013-10-04 03:10:00,71.1,66.0,29.78,South,178,7.0,15.0,84,0.00,-RA,-RA,0.00,WeatherDisplay:10.37,2013-10-04 08:10:00,
2013-10-04 03:20:00,71.2,66.1,29.78,South,185,8.0,13.0,84,0.00,-RA,-RA,0.00,WeatherDisplay:10.37,2013-10-04 08:20:00,
2013-10-04 03:25:00,71.2,66.1,29.78,South,190,7.0,10.0,84,0.00,-RA,-RA,0.00,WeatherDisplay:10.37,2013-10-04 08:25:00,
2013-10-04 03:35:00,71.2,66.1,29.78,South,183,6.0,12.0,84,0.00,-RA,-RA,0.00,WeatherDisplay:10.37,2013-10-04 08:35:00,
2013-10-04 03:45:00,71.2,66.1,29.78,South,182,7.0,12.0,84,0.00,-RA,-RA,0.00,WeatherDisplay:10.37,2013-10-04 08:45:00,
2013-10-04 03:55:00,71.3,66.2,29.77,South,175,7.0,12.0,84,0.00,-RA,-RA,0.00,WeatherDisplay:10.37,2013-10-04 08:55:00,
2013-10-04 04:00:00,71.2,66.4,29.77,South,186,9.0,16.0,85,0.00,-RA,-RA,0.00,WeatherDisplay:10.37,2013-10-04 09:00:00,
2013-10-04 04:10:00,71.2,66.4,29.77,South,191,7.0,13.0,85,0.00,-RA,-RA,0.00,WeatherDisplay:10.37,2013-10-04 09:10:00,
2013-10-04 04:15:00,71.4,66.6,29.77,South,188,7.0,17.0,85,0.00,-RA,-RA,0.00,WeatherDisplay:10.37,2013-10-04 09:15:00,
2013-10-04 04:25:00,71.4,66.6,29.77,South,182,8.0,14.0,85,0.00,-RA,-RA,0.00,WeatherDisplay:10.37,2013-10-04 09:25:00,
2013-10-04 04:30:00,71.4,66.6,29.78,SSW,195,9.0,16.0,85,0.00,-RA,-RA,0.00,WeatherDisplay:10.37,2013-10-04 09:30:00,
2013-10-04 04:40:00,71.4,66.6,29.78,SSW,199,8.0,20.0,85,0.00,-RA,-RA,0.00,WeatherDisplay:10.37,2013-10-04 09:40:00,
2013-10-04 04:45:00,71.4,66.6,29.78,South,187,8.0,13.0,85,0.00,-RA,-RA,0.00,WeatherDisplay:10.37,2013-10-04 09:45:00,
2013-10-04 04:50:00,71.4,66.6,29.78,SSW,194,8.0,20.0,85,0.00,-RA,-RA,0.00,WeatherDisplay:10.37,2013-10-04 09:50:00,
2013-10-04 04:55:00,71.4,66.6,29.78,South,189,7.0,13.0,85,0.00,-RA,-RA,0.00,WeatherDisplay:10.37,2013-10-04 09:55:00,
2013-10-04 05:00:00,71.4,66.6,29.78,South,185,7.0,16.0,85,0.00,-RA,-RA,0.00,WeatherDisplay:10.37,2013-10-04 10:00:00,
2013-10-04 05:10:00,71.4,66.6,29.78,South,191,7.0,13.0,85,0.00,-RA,-RA,0.00,WeatherDisplay:10.37,2013-10-04 10:10:00,
2013-10-04 05:15:00,71.4,66.6,29.78,South,190,8.0,12.0,85,0.00,-RA,-RA,0.00,WeatherDisplay:10.37,2013-10-04 10:15:00,
2013-10-04 05:20:00,71.4,66.6,29.78,South,185,8.0,14.0,85,0.00,-RA,-RA,0.00,WeatherDisplay:10.37,2013-10-04 10:20:00,
2013-10-04 05:25:00,71.4,66.6,29.78,South,182,7.0,13.0,85,0.00,-RA,-RA,0.00,WeatherDisplay:10.37,2013-10-04 10:25:00,
2013-10-04 05:30:00,71.3,66.9,29.78,South,181,7.0,15.0,86,0.00,-RA,-RA,0.00,WeatherDisplay:10.37,2013-10-04 10:30:00,
2013-10-04 05:40:00,71.3,66.9,29.78,South,184,8.0,12.0,86,0.00,-RA,-RA,0.00,WeatherDisplay:10.37,2013-10-04 10:40:00,
2013-10-04 05:45:00,71.3,66.9,29.78,South,190,6.0,10.0,86,0.00,-RA,-RA,0.00,WeatherDisplay:10.37,2013-10-04 10:45:00,
2013-10-04 05:50:00,71.2,66.8,29.78,South,189,6.0,13.0,86,0.00,-RA,-RA,0.00,WeatherDisplay:10.37,2013-10-04 10:50:00,
2013-10-04 05:55:00,71.2,66.8,29.78,South,191,6.0,12.0,86,0.00,-RA,-RA,0.00,WeatherDisplay:10.37,2013-10-04 10:55:00,
2013-10-04 06:00:00,71.1,66.7,29.78,South,187,7.0,18.0,86,0.00,-RA,-RA,0.00,WeatherDisplay:10.37,2013-10-04 11:00:00,
2013-10-04 06:10:00,71.0,66.6,29.78,South,181,8.0,14.0,86,0.00,-RA,-RA,0.00,WeatherDisplay:10.37,2013-10-04 11:10:00,
2013-10-04 06:20:00,70.9,66.8,29.78,South,187,6.0,14.0,87,0.00,-RA,-RA,0.00,WeatherDisplay:10.37,2013-10-04 11:20:00,
2013-10-04 06:25:00,70.9,66.8,29.79,South,187,7.0,14.0,87,0.00,-RA,-RA,0.00,WeatherDisplay:10.37,2013-10-04 11:25:00,
2013-10-04 06:30:00,71.0,66.6,29.79,South,182,7.0,13.0,86,0.00,-RA,-RA,0.00,WeatherDisplay:10.37,2013-10-04 11:30:00,
2013-10-04 06:40:00,71.0,66.6,29.79,South,187,6.0,9.0,86,0.00,-RA,-RA,0.00,WeatherDisplay:10.37,2013-10-04 11:40:00,
2013-10-04 06:45:00,71.0,66.6,29.79,South,180,6.0,12.0,86,0.00,-RA,-RA,0.00,WeatherDisplay:10.37,2013-10-04 11:45:00,
2013-10-04 06:50:00,71.0,66.6,29.78,South,186,5.0,9.0,86,0.00,-RA,-RA,0.00,WeatherDisplay:10.37,2013-10-04 11:50:00,
2013-10-04 06:55:00,71.0,66.6,29.78,South,181,6.0,10.0,86,0.00,-RA,-RA,0.00,WeatherDisplay:10.37,2013-10-04 11:55:00,
2013-10-04 07:00:00,71.0,66.6,29.78,South,183,5.0,10.0,86,0.00,-RA,-RA,0.00,WeatherDisplay:10.37,2013-10-04 12:00:00,
2013-10-04 07:10:00,71.1,66.7,29.78,South,186,6.0,12.0,86,0.00,-RA,-RA,0.00,WeatherDisplay:10.37,2013-10-04 12:10:00,
2013-10-04 07:15:00,71.1,66.7,29.78,South,191,6.0,12.0,86,0.00,-RA,-RA,0.00,WeatherDisplay:10.37,2013-10-04 12:15:00,
2013-10-04 07:20:00,71.2,66.8,29.78,South,187,5.0,12.0,86,0.00,-RA,-RA,0.00,WeatherDisplay:10.37,2013-10-04 12:20:00,
2013-10-04 07:30:00,71.2,66.8,29.78,South,187,6.0,10.0,86,0.00,-RA,-RA,0.00,WeatherDisplay:10.37,2013-10-04 12:30:00,
2013-10-04 07:40:00,71.4,67.0,29.78,South,173,6.0,13.0,86,0.00,-RA,-RA,0.00,WeatherDisplay:10.37,2013-10-04 12:40:00,
2013-10-04 07:45:00,71.5,67.1,29.78,South,177,6.0,12.0,86,0.00,-RA,-RA,0.00,WeatherDisplay:10.37,2013-10-04 12:45:00,
2013-10-04 07:50:00,71.5,67.1,29.78,South,169,7.0,12.0,86,0.00,-RA,-RA,0.00,WeatherDisplay:10.37,2013-10-04 12:50:00,
2013-10-04 08:00:00,71.6,67.1,29.78,South,179,6.0,12.0,86,0.00,-RA,-RA,0.00,WeatherDisplay:10.37,2013-10-04 13:00:00,
2013-10-04 08:10:00,71.8,67.0,29.78,South,179,7.0,14.0,85,0.00,-RA,-RA,0.00,WeatherDisplay:10.37,2013-10-04 13:10:00,
2013-10-04 08:15:00,71.9,67.2,29.78,South,185,6.0,15.0,85,0.00,-RA,-RA,0.00,WeatherDisplay:10.37,2013-10-04 13:15:00,
2013-10-04 08:20:00,72.1,67.3,29.78,South,186,7.0,13.0,85,0.00,-RA,-RA,0.00,WeatherDisplay:10.37,2013-10-04 13:20:00,
2013-10-04 08:30:00,72.4,67.3,29.78,South,187,7.0,13.0,84,0.00,-RA,-RA,0.00,WeatherDisplay:10.37,2013-10-04 13:30:00,
2013-10-04 08:40:00,72.5,67.3,29.78,South,177,6.0,12.0,84,0.00,-RA,-RA,0.00,WeatherDisplay:10.37,2013-10-04 13:40:00,
2013-10-04 08:45:00,72.6,67.4,29.78,South,184,7.0,12.0,84,0.00,-RA,-RA,0.00,WeatherDisplay:10.37,2013-10-04 13:45:00,
2013-10-04 08:50:00,72.8,67.6,29.78,South,188,7.0,13.0,84,0.00,-RA,-RA,0.00,WeatherDisplay:10.37,2013-10-04 13:50:00,
2013-10-04 08:55:00,72.9,67.4,29.78,South,177,8.0,18.0,83,0.00,-RA,-RA,0.00,WeatherDisplay:10.37,2013-10-04 13:55:00,
2013-10-04 09:00:00,73.0,67.5,29.78,South,177,8.0,15.0,83,0.00,-RA,-RA,0.00,WeatherDisplay:10.37,2013-10-04 14:00:00,
2013-10-04 09:10:00,73.1,67.6,29.78,South,173,7.0,14.0,83,0.00,-RA,-RA,0.00,WeatherDisplay:10.37,2013-10-04 14:10:00,
2013-10-04 09:15:00,73.1,67.7,29.78,South,176,7.0,12.0,83,0.00,-RA,-RA,0.00,WeatherDisplay:10.37,2013-10-04 14:15:00,
2013-10-04 09:20:00,73.2,67.7,29.78,South,184,7.0,13.0,83,0.00,-RA,-RA,0.00,WeatherDisplay:10.37,2013-10-04 14:20:00,
2013-10-04 09:30:00,73.4,67.6,29.78,South,179,7.0,12.0,82,0.00,-RA,-RA,0.00,WeatherDisplay:10.37,2013-10-04 14:30:00,
2013-10-04 09:40:00,73.6,67.7,29.78,South,175,7.0,15.0,82,0.00,-RA,-RA,0.00,WeatherDisplay:10.37,2013-10-04 14:40:00,
2013-10-04 09:45:00,73.7,67.8,29.78,South,179,8.0,16.0,82,0.00,-RA,-RA,0.00,WeatherDisplay:10.37,2013-10-04 14:45:00,
2013-10-04 09:55:00,73.9,68.0,29.78,South,179,7.0,14.0,82,0.00,-RA,-RA,0.00,WeatherDisplay:10.37,2013-10-04 14:55:00,
2013-10-04 10:00:00,74.1,67.9,29.79,South,186,7.0,12.0,81,0.00,-RA,-RA,0.00,WeatherDisplay:10.37,2013-10-04 15:00:00,
2013-10-04 10:10:00,74.1,67.9,29.78,South,185,6.0,15.0,81,0.00,-RA,-RA,0.00,WeatherDisplay:10.37,2013-10-04 15:10:00,
2013-10-04 10:15:00,74.1,67.9,29.78,South,188,6.0,12.0,81,0.00,-RA,-RA,0.00,WeatherDisplay:10.37,2013-10-04 15:15:00,
2013-10-04 10:25:00,74.1,67.9,29.78,SSW,193,7.0,13.0,81,0.00,-RA,-RA,0.00,WeatherDisplay:10.37,2013-10-04 15:25:00,
2013-10-04 10:30:00,74.3,68.0,29.78,South,188,7.0,12.0,81,0.00,-RA,-RA,0.00,WeatherDisplay:10.37,2013-10-04 15:30:00,
2013-10-04 10:40:00,74.9,68.3,29.78,South,183,6.0,15.0,80,0.00,-RA,-RA,0.00,WeatherDisplay:10.37,2013-10-04 15:40:00,
2013-10-04 10:50:00,75.3,68.3,29.78,South,180,7.0,12.0,79,0.00,-RA,-RA,0.00,WeatherDisplay:10.37,2013-10-04 15:50:00,
2013-10-04 10:55:00,75.3,68.3,29.78,South,181,7.0,13.0,79,0.00,-RA,-RA,0.00,WeatherDisplay:10.37,2013-10-04 15:55:00,
2013-10-04 11:00:00,75.1,68.2,29.78,South,170,6.0,15.0,79,0.00,-RA,-RA,0.00,WeatherDisplay:10.37,2013-10-04 16:00:00,
2013-10-04 11:05:00,75.4,68.8,29.78,South,180,7.0,12.0,80,0.00,-RA,-RA,0.00,WeatherDisplay:10.37,2013-10-04 16:05:00,
2013-10-04 11:15:00,76.6,68.9,29.78,South,190,6.0,12.0,77,0.00,-RA,-RA,0.00,WeatherDisplay:10.37,2013-10-04 16:15:00,
2013-10-04 11:20:00,76.8,69.0,29.79,South,189,6.0,18.0,77,0.00,-RA,-RA,0.00,WeatherDisplay:10.37,2013-10-04 16:20:00,
2013-10-04 11:30:00,76.9,68.7,29.78,SSW,192,9.0,15.0,76,0.00,-RA,-RA,0.00,WeatherDisplay:10.37,2013-10-04 16:30:00,
2013-10-04 11:40:00,77.2,69.0,29.78,SSW,195,7.0,13.0,76,0.00,-RA,-RA,0.00,WeatherDisplay:10.37,2013-10-04 16:40:00,
2013-10-04 11:45:00,77.4,69.3,29.78,South,188,6.0,18.0,76,0.00,-RA,-RA,0.00,WeatherDisplay:10.37,2013-10-04 16:45:00,
2013-10-04 11:50:00,78.1,69.1,29.78,SSW,193,7.0,12.0,74,0.00,-RA,-RA,0.00,WeatherDisplay:10.37,2013-10-04 16:50:00,
2013-10-04 12:00:00,78.5,69.9,29.77,South,186,6.0,12.0,75,0.00,-RA,-RA,0.00,WeatherDisplay:10.37,2013-10-04 17:00:00,
2013-10-04 12:10:00,79.5,69.6,29.77,South,188,9.0,14.0,72,0.00,-RA,-RA,0.00,WeatherDisplay:10.37,2013-10-04 17:10:00,
2013-10-04 12:15:00,80.2,69.9,29.77,South,189,8.0,13.0,71,0.00,-RA,-RA,0.00,WeatherDisplay:10.37,2013-10-04 17:15:00,
2013-10-04 12:20:00,80.7,70.0,29.77,South,187,8.0,13.0,70,0.00,-RA,-RA,0.00,WeatherDisplay:10.37,2013-10-04 17:20:00,
2013-10-04 12:30:00,81.4,70.3,29.77,South,190,7.0,13.0,69,0.00,-RA,-RA,0.00,WeatherDisplay:10.37,2013-10-04 17:30:00,
2013-10-04 13:00:00,82.9,69.0,29.76,SSW,194,10.0,15.0,63,0.00,-RA,-RA,0.00,WeatherDisplay:10.37,2013-10-04 18:00:00,
2013-10-04 13:10:00,83.6,69.2,29.75,South,190,8.0,14.0,62,0.00,-RA,-RA,0.00,WeatherDisplay:10.37,2013-10-04 18:10:00,
2013-10-04 13:15:00,83.7,69.3,29.75,South,189,9.0,15.0,62,0.00,-RA,-RA,0.00,WeatherDisplay:10.37,2013-10-04 18:15:00,
2013-10-04 13:25:00,84.2,68.3,29.74,SSW,192,9.0,18.0,59,0.00,-RA,-RA,0.00,WeatherDisplay:10.37,2013-10-04 18:25:00,
2013-10-04 13:30:00,84.9,67.5,29.74,SSW,194,10.0,18.0,56,0.00,-RA,-RA,0.00,WeatherDisplay:10.37,2013-10-04 18:30:00,
2013-10-04 13:40:00,84.4,68.0,29.74,SSW,197,7.0,15.0,58,0.00,-RA,-RA,0.00,WeatherDisplay:10.37,2013-10-04 18:40:00,
2013-10-04 13:45:00,84.1,67.7,29.74,South,191,12.0,22.0,58,0.00,-RA,-RA,0.00,WeatherDisplay:10.37,2013-10-04 18:45:00,
2013-10-04 13:50:00,84.3,67.4,29.73,South,190,9.0,22.0,57,0.00,-RA,-RA,0.00,WeatherDisplay:10.37,2013-10-04 18:50:00,
2013-10-04 13:55:00,84.1,66.7,29.73,SSW,193,7.0,17.0,56,0.00,-RA,-RA,0.00,WeatherDisplay:10.37,2013-10-04 18:55:00,
2013-10-04 14:00:00,83.4,66.6,29.73,SSW,192,8.0,16.0,57,0.00,-RA,-RA,0.00,WeatherDisplay:10.37,2013-10-04 19:00:00,
2013-10-04 14:10:00,84.0,67.1,29.72,South,184,10.0,20.0,57,0.00,-RA,-RA,0.00,WeatherDisplay:10.37,2013-10-04 19:10:00,
2013-10-04 14:20:00,85.0,68.1,29.72,South,183,7.0,15.0,57,0.00,-RA,-RA,0.00,WeatherDisplay:10.37,2013-10-04 19:20:00,
2013-10-04 14:30:00,85.6,67.6,29.72,South,179,7.0,15.0,55,0.00,-RA,-RA,0.00,WeatherDisplay:10.37,2013-10-04 19:30:00,
2013-10-04 14:40:00,86.0,66.9,29.71,South,186,9.0,18.0,53,0.00,-RA,-RA,0.00,WeatherDisplay:10.37,2013-10-04 19:40:00,
2013-10-04 14:50:00,86.6,68.0,29.71,South,187,6.0,23.0,54,0.00,-RA,-RA,0.00,WeatherDisplay:10.37,2013-10-04 19:50:00,
2013-10-04 14:55:00,86.6,66.9,29.71,South,188,9.0,17.0,52,0.00,-RA,-RA,0.00,WeatherDisplay:10.37,2013-10-04 19:55:00,
2013-10-04 15:00:00,86.8,67.6,29.71,South,176,8.0,16.0,53,0.00,-RA,-RA,0.00,WeatherDisplay:10.37,2013-10-04 20:00:00,
2013-10-04 15:10:00,86.4,65.6,29.71,South,184,12.0,23.0,50,0.00,-RA,-RA,0.00,WeatherDisplay:10.37,2013-10-04 20:10:00,
2013-10-04 15:15:00,86.4,66.7,29.71,South,180,8.0,18.0,52,0.00,-RA,-RA,0.00,WeatherDisplay:10.37,2013-10-04 20:15:00,
2013-10-04 15:20:00,86.8,65.9,29.71,South,175,12.0,20.0,50,0.00,-RA,-RA,0.00,WeatherDisplay:10.37,2013-10-04 20:20:00,
2013-10-04 15:30:00,86.6,65.7,29.71,SSW,194,9.0,17.0,50,0.00,-RA,-RA,0.00,WeatherDisplay:10.37,2013-10-04 20:30:00,
2013-10-04 15:40:00,86.6,66.3,29.71,South,184,10.0,18.0,51,0.00,-RA,-RA,0.00,WeatherDisplay:10.37,2013-10-04 20:40:00,
2013-10-04 15:45:00,86.6,66.3,29.71,South,178,7.0,17.0,51,0.00,-RA,-RA,0.00,WeatherDisplay:10.37,2013-10-04 20:45:00,
2013-10-04 15:55:00,87.2,66.3,29.71,South,191,7.0,14.0,50,0.00,-RA,-RA,0.00,WeatherDisplay:10.37,2013-10-04 20:55:00,
2013-10-04 16:00:00,87.1,66.2,29.71,South,190,8.0,13.0,50,0.00,-RA,-RA,0.00,WeatherDisplay:10.37,2013-10-04 21:00:00,
2013-10-04 16:10:00,86.8,65.3,29.70,South,189,8.0,16.0,49,0.00,-RA,-RA,0.00,WeatherDisplay:10.37,2013-10-04 21:10:00,
2013-10-04 16:20:00,87.0,65.5,29.70,South,187,7.0,13.0,49,0.00,-RA,-RA,0.00,WeatherDisplay:10.37,2013-10-04 21:20:00,
2013-10-04 16:25:00,87.0,65.5,29.70,South,181,9.0,17.0,49,0.00,-RA,-RA,0.00,WeatherDisplay:10.37,2013-10-04 21:25:00,
2013-10-04 16:30:00,86.8,65.3,29.70,South,178,7.0,15.0,49,0.00,-RA,-RA,0.00,WeatherDisplay:10.37,2013-10-04 21:30:00,
2013-10-04 16:40:00,86.8,64.8,29.70,South,184,8.0,20.0,48,0.00,-RA,-RA,0.00,WeatherDisplay:10.37,2013-10-04 21:40:00,
2013-10-04 16:45:00,86.8,64.7,29.70,South,186,8.0,16.0,48,0.00,-RA,-RA,0.00,WeatherDisplay:10.37,2013-10-04 21:45:00,
2013-10-04 16:50:00,86.7,64.1,29.70,South,187,9.0,17.0,47,0.00,-RA,-RA,0.00,WeatherDisplay:10.37,2013-10-04 21:50:00,
2013-10-04 16:55:00,86.7,64.6,29.70,South,179,8.0,17.0,48,0.00,-RA,-RA,0.00,WeatherDisplay:10.37,2013-10-04 21:55:00,
2013-10-04 17:00:00,86.5,65.0,29.70,South,180,7.0,12.0,49,0.00,-RA,-RA,0.00,WeatherDisplay:10.37,2013-10-04 22:00:00,
2013-10-04 17:10:00,86.0,65.7,29.71,South,180,6.0,12.0,51,0.00,-RA,-RA,0.00,WeatherDisplay:10.37,2013-10-04 22:10:00,
2013-10-04 17:15:00,86.1,65.3,29.71,South,190,6.0,10.0,50,0.00,-RA,-RA,0.00,WeatherDisplay:10.37,2013-10-04 22:15:00,
2013-10-04 17:20:00,85.9,65.1,29.72,South,190,8.0,14.0,50,0.00,-RA,-RA,0.00,WeatherDisplay:10.37,2013-10-04 22:20:00,
2013-10-04 17:25:00,85.2,65.0,29.72,South,181,6.0,14.0,51,0.00,-RA,-RA,0.00,WeatherDisplay:10.37,2013-10-04 22:25:00,
2013-10-04 17:30:00,84.3,64.2,29.72,South,178,6.0,12.0,51,0.00,-RA,-RA,0.00,WeatherDisplay:10.37,2013-10-04 22:30:00,
2013-10-04 17:40:00,83.4,64.5,29.71,South,180,5.0,9.0,53,0.00,-RA,-RA,0.00,WeatherDisplay:10.37,2013-10-04 22:40:00,
2013-10-04 17:45:00,83.1,64.7,29.71,South,182,5.0,8.0,54,0.00,-RA,-RA,0.00,WeatherDisplay:10.37,2013-10-04 22:45:00,
2013-10-04 17:50:00,83.0,64.6,29.71,South,177,5.0,12.0,54,0.00,-RA,-RA,0.00,WeatherDisplay:10.37,2013-10-04 22:50:00,
2013-10-04 17:55:00,82.8,65.0,29.72,South,169,3.0,6.0,55,0.00,-RA,-RA,0.00,WeatherDisplay:10.37,2013-10-04 22:55:00,
2013-10-04 18:00:00,82.5,65.2,29.73,South,170,3.0,6.0,56,0.00,-RA,-RA,0.00,WeatherDisplay:10.37,2013-10-04 23:00:00,
2013-10-04 18:10:00,81.6,64.9,29.74,South,180,5.0,12.0,57,0.00,-RA,-RA,0.00,WeatherDisplay:10.37,2013-10-04 23:10:00,
2013-10-04 18:15:00,81.5,65.3,29.75,South,185,3.0,9.0,58,0.00,-RA,-RA,0.00,WeatherDisplay:10.37,2013-10-04 23:15:00,
2013-10-04 18:20:00,81.2,65.5,29.75,South,179,3.0,6.0,59,0.00,-RA,-RA,0.00,WeatherDisplay:10.37,2013-10-04 23:20:00,
2013-10-04 18:25:00,80.9,65.2,29.75,South,177,3.0,6.0,59,0.00,-RA,-RA,0.00,WeatherDisplay:10.37,2013-10-04 23:25:00,
2013-10-04 18:30:00,80.7,65.5,29.75,South,175,3.0,6.0,60,0.00,-RA,-RA,0.00,WeatherDisplay:10.37,2013-10-04 23:30:00,
2013-10-04 18:40:00,80.3,64.7,29.76,South,186,5.0,8.0,59,0.00,-RA,-RA,0.00,WeatherDisplay:10.37,2013-10-04 23:40:00,
2013-10-04 18:45:00,80.3,64.6,29.76,SSW,193,3.0,8.0,59,0.00,-RA,-RA,0.00,WeatherDisplay:10.37,2013-10-04 23:45:00,
2013-10-04 18:50:00,80.3,64.6,29.76,South,186,2.0,5.0,59,0.00,-RA,-RA,0.00,WeatherDisplay:10.37,2013-10-04 23:50:00,
2013-10-04 18:55:00,80.0,64.9,29.77,South,175,2.0,5.0,60,0.00,-RA,-RA,0.00,WeatherDisplay:10.37,2013-10-04 23:55:00,
2013-10-04 19:00:00,79.9,64.7,29.77,SSE,168,2.0,6.0,60,0.00,-RA,-RA,0.00,WeatherDisplay:10.37,2013-10-05 00:00:00,
2013-10-04 19:10:00,79.5,64.8,29.78,South,172,2.0,7.0,61,0.00,-RA,-RA,0.00,WeatherDisplay:10.37,2013-10-05 00:10:00,
2013-10-04 19:15:00,79.4,64.3,29.77,South,183,2.0,6.0,60,0.00,-RA,-RA,0.00,WeatherDisplay:10.37,2013-10-05 00:15:00,
2013-10-04 19:20:00,79.5,64.4,29.77,South,180,5.0,8.0,60,0.00,-RA,-RA,0.00,WeatherDisplay:10.37,2013-10-05 00:20:00,
2013-10-04 19:30:00,79.8,64.7,29.77,South,177,5.0,9.0,60,0.00,-RA,-RA,0.00,WeatherDisplay:10.37,2013-10-05 00:30:00,
2013-10-04 19:40:00,79.4,64.3,29.76,South,172,2.0,5.0,60,0.00,-RA,-RA,0.00,WeatherDisplay:10.37,2013-10-05 00:40:00,
2013-10-04 19:45:00,79.2,64.6,29.77,South,172,2.0,6.0,61,0.00,-RA,-RA,0.00,WeatherDisplay:10.37,2013-10-05 00:45:00,
2013-10-04 19:50:00,79.0,64.4,29.76,South,175,3.0,6.0,61,0.00,-RA,-RA,0.00,WeatherDisplay:10.37,2013-10-05 00:50:00,
2013-10-04 19:55:00,79.0,64.4,29.78,SSW,210,6.0,8.0,61,0.00,-RA,-RA,0.00,WeatherDisplay:10.37,2013-10-05 00:55:00,
2013-10-04 20:00:00,78.3,62.8,29.79,WSW,247,5.0,8.0,59,0.00,-RA,-RA,0.00,WeatherDisplay:10.37,2013-10-05 01:00:00,
2013-10-04 20:10:00,75.4,63.2,29.79,SW,225,3.0,8.0,66,0.03,-RA,-RA,0.03,WeatherDisplay:10.37,2013-10-05 01:10:00,
2013-10-04 20:15:00,73.7,63.8,29.79,WSW,246,2.0,6.0,71,0.05,-RA,-RA,0.08,WeatherDisplay:10.37,2013-10-05 01:15:00,
2013-10-04 20:20:00,71.2,64.0,29.82,SW,233,7.0,18.0,78,0.11,-RA,-RA,0.19,WeatherDisplay:10.37,2013-10-05 01:20:00,
2013-10-04 20:35:00,67.4,62.8,29.81,SSW,201,6.0,12.0,85,0.01,-RA,-RA,0.20,WeatherDisplay:10.37,2013-10-05 01:35:00,
2013-10-04 20:40:00,67.0,62.0,29.81,SSW,195,5.0,12.0,84,0.01,-RA,-RA,0.22,WeatherDisplay:10.37,2013-10-05 01:40:00,
2013-10-04 20:45:00,66.6,61.9,29.83,SSW,198,3.0,7.0,85,0.00,-RA,-RA,0.22,WeatherDisplay:10.37,2013-10-05 01:45:00,
2013-10-04 20:50:00,66.5,62.5,29.84,South,191,2.0,6.0,87,0.00,-RA,-RA,0.22,WeatherDisplay:10.37,2013-10-05 01:50:00,
2013-10-04 20:55:00,66.3,62.3,29.84,South,190,3.0,5.0,87,0.01,-RA,-RA,0.23,WeatherDisplay:10.37,2013-10-05 01:55:00,
2013-10-04 21:00:00,66.2,62.5,29.84,SSW,193,1.0,3.0,88,0.03,-RA,-RA,0.26,WeatherDisplay:10.37,2013-10-05 02:00:00,
2013-10-04 21:10:00,66.0,62.3,29.83,SSW,194,0.0,1.0,88,0.01,-RA,-RA,0.29,WeatherDisplay:10.37,2013-10-05 02:10:00,
2013-10-04 21:15:00,66.1,62.7,29.83,SSW,194,0.0,2.0,89,0.00,-RA,-RA,0.29,WeatherDisplay:10.37,2013-10-05 02:15:00,
2013-10-04 21:20:00,66.1,62.7,29.83,SSW,194,2.0,3.0,89,0.14,-RA,-RA,0.43,WeatherDisplay:10.37,2013-10-05 02:20:00,
2013-10-04 21:25:00,66.2,62.8,29.83,SSW,194,1.0,5.0,89,0.10,-RA,-RA,0.52,WeatherDisplay:10.37,2013-10-05 02:25:00,
2013-10-04 21:30:00,66.3,63.2,29.84,SSW,195,3.0,9.0,90,0.01,-RA,-RA,0.53,WeatherDisplay:10.37,2013-10-05 02:30:00,
2013-10-04 21:40:00,66.0,63.0,29.85,SSW,196,3.0,9.0,90,0.00,-RA,-RA,0.53,WeatherDisplay:10.37,2013-10-05 02:40:00,
2013-10-04 21:50:00,66.1,63.0,29.86,SW,219,2.0,5.0,90,0.00,-RA,-RA,0.53,WeatherDisplay:10.37,2013-10-05 02:50:00,
2013-10-04 22:00:00,66.0,62.9,29.86,SSW,196,1.0,5.0,90,0.00,-RA,-RA,0.53,WeatherDisplay:10.37,2013-10-05 03:00:00,
2013-10-04 22:10:00,66.0,62.9,29.86,SSW,197,3.0,5.0,90,0.00,-RA,-RA,0.53,WeatherDisplay:10.37,2013-10-05 03:10:00,
2013-10-04 22:15:00,66.0,63.3,29.86,SSW,203,2.0,5.0,91,0.01,-RA,-RA,0.55,WeatherDisplay:10.37,2013-10-05 03:15:00,
2013-10-04 22:20:00,66.0,63.3,29.87,SSW,212,5.0,7.0,91,0.00,-RA,-RA,0.55,WeatherDisplay:10.37,2013-10-05 03:20:00,
2013-10-04 22:30:00,66.2,63.5,29.88,SW,222,3.0,7.0,91,0.00,-RA,-RA,0.55,WeatherDisplay:10.37,2013-10-05 03:30:00,
2013-10-04 22:40:00,66.1,63.4,29.88,SW,223,2.0,4.0,91,0.00,-RA,-RA,0.56,WeatherDisplay:10.37,2013-10-05 03:40:00,
2013-10-04 22:45:00,65.7,62.7,29.88,West,264,3.0,7.0,90,0.00,-RA,-RA,0.56,WeatherDisplay:10.37,2013-10-05 03:45:00,
2013-10-04 22:50:00,64.8,61.5,29.90,West,270,3.0,6.0,89,0.00,-RA,-RA,0.56,WeatherDisplay:10.37,2013-10-05 03:50:00,
2013-10-04 22:55:00,64.3,60.4,29.90,West,260,2.0,6.0,87,0.00,-RA,-RA,0.56,WeatherDisplay:10.37,2013-10-05 03:55:00,
2013-10-04 23:00:00,63.7,59.1,29.90,WSW,250,2.0,4.0,85,0.00,-RA,-RA,0.56,WeatherDisplay:10.37,2013-10-05 04:00:00,
2013-10-04 23:05:00,63.3,57.7,29.90,WSW,245,2.0,5.0,82,0.00,-RA,-RA,0.56,WeatherDisplay:10.37,2013-10-05 04:05:00,
2013-10-04 23:10:00,62.9,56.6,29.90,West,269,2.0,7.0,80,0.00,-RA,-RA,0.56,WeatherDisplay:10.37,2013-10-05 04:10:00,
2013-10-04 23:15:00,62.6,56.3,29.90,WNW,285,3.0,6.0,80,0.00,-RA,-RA,0.56,WeatherDisplay:10.37,2013-10-05 04:15:00,
2013-10-04 23:20:00,62.2,55.2,29.90,WNW,289,3.0,7.0,78,0.00,-RA,-RA,0.56,WeatherDisplay:10.37,2013-10-05 04:20:00,
2013-10-04 23:25:00,61.7,54.1,29.91,WNW,297,5.0,13.0,76,0.00,-RA,-RA,0.56,WeatherDisplay:10.37,2013-10-05 04:25:00,
2013-10-04 23:30:00,61.5,52.8,29.91,WNW,294,5.0,15.0,73,0.00,-RA,-RA,0.56,WeatherDisplay:10.37,2013-10-05 04:30:00,
2013-10-04 23:40:00,60.8,51.7,29.92,WNW,290,5.0,8.0,72,0.00,-RA,-RA,0.56,WeatherDisplay:10.37,2013-10-05 04:40:00,
2013-10-04 23:45:00,60.6,51.8,29.93,WNW,285,3.0,10.0,73,0.00,-RA,-RA,0.56,WeatherDisplay:10.37,2013-10-05 04:45:00,
2013-10-04 23:50:00,60.3,51.7,29.92,WNW,289,5.0,10.0,73,0.00,-RA,-RA,0.56,WeatherDisplay:10.37,2013-10-05 04:50:00,
2013-10-04 23:55:00,60.3,50.4,29.93,WNW,292,6.0,13.0,70,0.00,-RA,-RA,0.56,WeatherDisplay:10.37,2013-10-05 04:55:00,